Find Starlink 30844

NORAD ID: 58403 Int'l Des: 2023-180 Owner: SPXS Country: US Constellation: starlink operational
LEOCIRCULAR

实时位置

正在加载3D地球...

关于 Starlink 30844

正在加载描述...

即将过境

Passes for default location (London). Set your location on the main map for personalized predictions.

高度历史

Loading altitude history...

两行轨道根数

1 58403U 23180B 26130.09456363 .00000085 00000-0 12615-4 0 9994
2 58403 43.0026 66.0680 0001389 277.5443 82.5251 15.27574038136898
Epoch: May 10, 2026 • Age: 11 hours

当前状态

高度 484.8 km
速度 7.63 km/s
星下点 33.25°N, 37.12°E
发射日期 Nov 22, 2023
运行时间 2.4 years
类型 internet

技术详情

分类 Payload
质量 730.00 kg
干质量 700.00 kg
总质量 730.00 kg
长度 0.30 m
直径 4.10 m
跨度 29.00 m
形状 Box + pan
制造商 SPXS
平台类型 Starlink V2M
阶段状态 In Orbit
所有者/国家 SPXS/US

Most Searched